Weather History for Lancaster, PA

Change the Weather History Date:

Monday, June 4, 2012

  Actual Average Record
Temperature  
Mean Temperature 62 °F -  
Max Temperature 72 °F 76 °F 84 °F (1991)
Min Temperature 55 °F 54 °F 44 °F (1977)
Degree Days  
Heating Degree Days 2    
Growing Degree Days 12 (Base 50)    
Moisture  
Dew Point 52 °F    
Average Humidity 75    
Maximum Humidity 93    
Minimum Humidity 44    
Precipitation  
Precipitation 0.23 in - - ()
Sea Level Pressure  
Sea Level Pressure 29.69 in    
Wind  
Wind Speed 8 mph (North)    
Max Wind Speed 18 mph    
Max Gust Speed 30 mph    
Visibility 9 miles    
Events Rain    
Averages and records for this station are not official NWS values.
T = Trace of Precipitation, MM = Missing Value Source: NWS Daily Summary

Daily Weather History Graph

Daily Weather History Graph

Search for Another Location

Airport:

Trip Planner

Search our weather history database for the weather conditions in past years. The results will help you decide how hot, cold, wet, or windy it might be!

Date:

Astronomy

Jun. 04, 2012 Rise Set
Actual Time 5:36 AM EDT 8:30 PM EDT
Civil Twilight 5:04 AM EDT 9:03 PM EDT
Nautical Twilight 4:23 AM EDT 9:44 PM EDT
Astronomical Twilight 3:36 AM EDT 10:31 PM EDT
Moon 8:58 PM EDT (6/4) 5:41 AM EDT (6/4)
Length of Visible Light 15h 58m
Length of Day
14h 53m
Full, 100% of the Moon is Illuminated
Jun 4
Full
Jun 11
Last Quarter
Jun 19
New
Jun 26
First Quarter
Jul 3
Full

Hourly Weather History & Observations

Time (EDT) Temp. Dew Point Humidity Pressure Visibility Wind Dir Wind Speed Gust Speed Precip Events Conditions
12:53 AM 59.0 °F 53.1 °F 81% 29.70 in 10.0 mi West 5.8 mph - N/A   Mostly Cloudy
1:53 AM 59.0 °F 54.0 °F 83% 29.68 in 10.0 mi WSW 3.5 mph - 0.00 in   Overcast
2:53 AM 57.9 °F 54.0 °F 87% 29.67 in 10.0 mi WNW 4.6 mph - N/A   Overcast
3:53 AM 57.9 °F 55.0 °F 90% 29.64 in 10.0 mi West 4.6 mph - 0.03 in   Overcast
4:53 AM 55.9 °F 54.0 °F 93% 29.63 in 9.0 mi West 3.5 mph - N/A   Clear
6:53 AM 57.9 °F 55.0 °F 90% 29.63 in 10.0 mi West 15.0 mph 28.8 mph N/A   Mostly Cloudy
8:53 AM 62.1 °F 52.0 °F 70% 29.65 in 10.0 mi NW 13.8 mph - N/A   Overcast
9:13 AM 60.8 °F 51.8 °F 72% 29.66 in 10.0 mi NNW 12.7 mph - N/A   Overcast
9:53 AM 63.0 °F 50.0 °F 63% 29.65 in 10.0 mi North 12.7 mph 19.6 mph N/A   Overcast
10:53 AM 66.9 °F 50.0 °F 54% 29.65 in 10.0 mi North 15.0 mph 23.0 mph N/A   Partly Cloudy
11:53 AM 68.0 °F 46.9 °F 47% 29.66 in 10.0 mi NNW 13.8 mph 25.3 mph N/A   Mostly Cloudy
12:53 PM 68.0 °F 48.9 °F 50% 29.66 in 10.0 mi North 11.5 mph - N/A   Mostly Cloudy
1:53 PM 70.0 °F 46.9 °F 44% 29.65 in 10.0 mi North 15.0 mph 19.6 mph N/A   Overcast
2:53 PM 64.9 °F 48.0 °F 54% 29.67 in 10.0 mi NNE 11.5 mph 17.3 mph N/A   Overcast
3:53 PM 68.0 °F 48.0 °F 49% 29.67 in 10.0 mi West 3.5 mph - N/A   Overcast
4:53 PM 64.0 °F 51.1 °F 63% 29.68 in 10.0 mi NE 10.4 mph 18.4 mph 0.00 in Rain Light Rain
5:53 PM 64.0 °F 54.0 °F 70% 29.68 in 10.0 mi ESE 4.6 mph - 0.00 in   Mostly Cloudy
6:49 PM 60.8 °F 55.4 °F 82% 29.71 in 1.5 mi NE 18.4 mph 29.9 mph 0.15 in Rain Heavy Rain
6:53 PM 59.0 °F 55.0 °F 87% 29.71 in 1.0 mi ENE 12.7 mph 29.9 mph 0.17 in Rain Heavy Rain
7:00 PM 59.0 °F 55.4 °F 88% 29.71 in 7.0 mi ENE 10.4 mph 19.6 mph 0.00 in Rain Light Rain
7:53 PM 59.0 °F 55.0 °F 87% 29.73 in 7.0 mi Variable 4.6 mph - 0.01 in Rain Light Rain
8:01 PM 59.0 °F 55.4 °F 88% 29.74 in 4.0 mi NE 9.2 mph - 0.00 in Rain Light Rain
8:53 PM 57.0 °F 53.1 °F 87% 29.76 in 10.0 mi ENE 5.8 mph - 0.02 in   Overcast
9:53 PM 57.0 °F 53.1 °F 87% 29.78 in 10.0 mi ENE 5.8 mph - N/A   Overcast
10:53 PM 55.9 °F 52.0 °F 87% 29.79 in 10.0 mi ENE 11.5 mph - N/A   Overcast
11:53 PM 55.0 °F 51.1 °F 86% 29.80 in 10.0 mi NE 5.8 mph - N/A   Overcast